Time,TemperatureF,DewpointF,PressureIn,WindDirection,WindDirectionDegrees,WindSpeedMPH,WindSpeedGustMPH,Humidity,HourlyPrecipIn,Conditions,Clouds,dailyrainin,SoftwareType,DateUTC
2013-02-18 00:06:00,23.2,14.9,29.79,SSE,157,5.8,-999.0,70,-99.99,,,0.00,Acu-Link.com,2013-02-18 06:06:00,
2013-02-18 00:21:00,23.5,15.2,29.78,SE,135,6.8,-999.0,70,-99.99,,,0.00,Acu-Link.com,2013-02-18 06:21:00,
2013-02-18 00:36:00,23.7,15.4,29.78,SE,135,5.3,-999.0,70,-99.99,,,0.00,Acu-Link.com,2013-02-18 06:36:00,
2013-02-18 00:51:00,24.1,15.8,29.78,SSE,157,5.8,-999.0,70,-99.99,,,0.00,Acu-Link.com,2013-02-18 06:51:00,
2013-02-18 01:07:00,24.1,16.1,29.77,SSE,157,5.8,-999.0,71,-99.99,,,0.00,Acu-Link.com,2013-02-18 07:07:00,
2013-02-18 01:22:00,24.1,16.4,29.76,SE,135,8.9,-999.0,72,-99.99,,,0.00,Acu-Link.com,2013-02-18 07:22:00,
2013-02-18 01:37:00,24.3,16.9,29.76,SE,135,5.8,-999.0,73,-99.99,,,0.00,Acu-Link.com,2013-02-18 07:37:00,
2013-02-18 01:52:00,24.4,17.0,29.75,SE,135,7.3,-999.0,73,-99.99,,,0.00,Acu-Link.com,2013-02-18 07:52:00,
2013-02-18 02:07:00,24.4,17.3,29.74,SSE,157,5.8,-999.0,74,-99.99,,,0.00,Acu-Link.com,2013-02-18 08:07:00,
2013-02-18 02:23:00,24.4,17.3,29.73,SSE,157,3.2,-999.0,74,-99.99,,,0.00,Acu-Link.com,2013-02-18 08:23:00,
2013-02-18 02:38:00,24.6,17.8,29.71,ESE,112,6.8,-999.0,75,-99.99,,,0.00,Acu-Link.com,2013-02-18 08:38:00,
2013-02-18 02:53:00,24.6,17.8,29.70,SE,135,10.9,-999.0,75,-99.99,,,0.00,Acu-Link.com,2013-02-18 08:53:00,
2013-02-18 03:18:00,25.0,18.2,29.69,SE,135,5.8,-999.0,75,-99.99,,,0.00,Acu-Link.com,2013-02-18 09:18:00,
2013-02-18 03:33:00,25.0,18.5,29.67,SE,135,4.7,-999.0,76,-99.99,,,0.00,Acu-Link.com,2013-02-18 09:33:00,
2013-02-18 03:48:00,25.0,18.8,29.65,SSE,157,8.3,-999.0,77,-99.99,,,0.00,Acu-Link.com,2013-02-18 09:48:00,
2013-02-18 04:04:00,26.1,20.2,29.63,ESE,112,6.3,-999.0,78,-99.99,,,0.00,Acu-Link.com,2013-02-18 10:04:00,
2013-02-18 04:19:00,25.3,19.7,29.63,SE,135,4.7,-999.0,79,-99.99,,,0.00,Acu-Link.com,2013-02-18 10:19:00,
2013-02-18 04:34:00,25.0,20.0,29.62,SSE,157,6.3,-999.0,81,-99.99,,,0.00,Acu-Link.com,2013-02-18 10:34:00,
2013-02-18 04:49:00,25.0,20.3,29.61,SE,135,5.3,-999.0,82,-99.99,,,0.00,Acu-Link.com,2013-02-18 10:49:00,
2013-02-18 05:04:00,25.2,20.8,29.59,ESE,112,4.7,-999.0,83,-99.99,,,0.00,Acu-Link.com,2013-02-18 11:04:00,
2013-02-18 05:19:00,25.5,21.1,29.60,SSE,157,4.2,-999.0,83,-99.99,,,0.00,Acu-Link.com,2013-02-18 11:19:00,
2013-02-18 05:35:00,25.7,21.3,29.58,SE,135,4.2,-999.0,83,-99.99,,,0.00,Acu-Link.com,2013-02-18 11:35:00,
2013-02-18 05:50:00,26.1,21.9,29.57,ESE,112,4.2,-999.0,84,-99.99,,,0.00,Acu-Link.com,2013-02-18 11:50:00,
2013-02-18 06:05:00,26.2,22.3,29.57,SSE,157,5.3,-999.0,85,-99.99,,,0.00,Acu-Link.com,2013-02-18 12:05:00,
2013-02-18 06:20:00,27.1,23.5,29.56,SE,135,5.3,-999.0,86,-99.99,,,0.00,Acu-Link.com,2013-02-18 12:20:00,
2013-02-18 06:51:00,29.3,25.4,29.55,SSE,157,6.8,-999.0,85,-99.99,,,0.00,Acu-Link.com,2013-02-18 12:51:00,
2013-02-18 07:06:00,30.0,25.8,29.54,SSE,157,8.3,-999.0,84,-99.99,,,0.00,Acu-Link.com,2013-02-18 13:06:00,
2013-02-18 07:21:00,30.7,26.2,29.55,SSE,157,7.8,-999.0,83,-99.99,,,0.00,Acu-Link.com,2013-02-18 13:21:00,
2013-02-18 07:36:00,31.3,26.7,29.56,SE,135,6.8,-999.0,83,-99.99,,,0.00,Acu-Link.com,2013-02-18 13:36:00,
2013-02-18 07:52:00,32.2,27.3,29.54,SSE,157,7.8,-999.0,82,-99.99,,,0.00,Acu-Link.com,2013-02-18 13:52:00,
2013-02-18 08:07:00,32.9,28.0,29.54,SE,135,8.9,-999.0,82,-99.99,,,0.00,Acu-Link.com,2013-02-18 14:07:00,
2013-02-18 08:22:00,33.6,28.7,29.53,SE,135,6.8,-999.0,82,-99.99,,,0.00,Acu-Link.com,2013-02-18 14:22:00,
2013-02-18 08:37:00,34.3,29.4,29.53,SE,135,9.4,-999.0,82,-99.99,,,0.00,Acu-Link.com,2013-02-18 14:37:00,
2013-02-18 08:52:00,35.1,30.8,29.52,ESE,112,6.3,-999.0,84,-99.99,,,0.00,Acu-Link.com,2013-02-18 14:52:00,
2013-02-18 09:08:00,36.5,31.8,29.52,SSE,157,3.7,-999.0,83,-99.99,,,0.00,Acu-Link.com,2013-02-18 15:08:00,
2013-02-18 09:23:00,37.6,32.6,29.51,WSW,247,6.3,-999.0,82,-99.99,,,0.00,Acu-Link.com,2013-02-18 15:23:00,
2013-02-18 09:38:00,38.8,33.5,29.50,SSW,202,6.3,-999.0,81,-99.99,,,0.00,Acu-Link.com,2013-02-18 15:38:00,
2013-02-18 09:53:00,39.2,33.9,29.50,South,180,6.8,-999.0,81,-99.99,,,0.00,Acu-Link.com,2013-02-18 15:53:00,
2013-02-18 10:08:00,39.7,34.4,29.50,SSW,202,5.8,-999.0,81,-99.99,,,0.00,Acu-Link.com,2013-02-18 16:08:00,
2013-02-18 10:24:00,40.3,34.3,29.50,SSE,157,7.3,-999.0,79,-99.99,,,0.00,Acu-Link.com,2013-02-18 16:24:00,
2013-02-18 10:39:00,40.5,34.8,29.48,SSW,202,5.8,-999.0,80,-99.99,,,0.00,Acu-Link.com,2013-02-18 16:39:00,
2013-02-18 10:54:00,41.5,35.2,29.48,SSE,157,4.7,-999.0,78,-99.99,,,0.00,Acu-Link.com,2013-02-18 16:54:00,
2013-02-18 11:09:00,41.7,35.7,29.47,SSW,202,13.5,-999.0,79,-99.99,,,0.00,Acu-Link.com,2013-02-18 17:09:00,
2013-02-18 11:25:00,42.1,36.4,29.46,SSW,202,4.7,-999.0,80,-99.99,,,0.00,Acu-Link.com,2013-02-18 17:25:00,
2013-02-18 11:40:00,42.6,36.6,29.46,SSW,202,5.8,-999.0,79,-99.99,,,0.00,Acu-Link.com,2013-02-18 17:40:00,
2013-02-18 11:55:00,43.5,37.1,29.44,SW,225,4.2,-999.0,78,-99.99,,,0.00,Acu-Link.com,2013-02-18 17:55:00,
2013-02-18 12:10:00,44.2,37.8,29.43,SSE,157,8.9,-999.0,78,-99.99,,,0.00,Acu-Link.com,2013-02-18 18:10:00,
2013-02-18 12:25:00,44.6,38.2,29.42,SSW,202,8.9,-999.0,78,-99.99,,,0.00,Acu-Link.com,2013-02-18 18:25:00,
2013-02-18 12:41:00,44.4,38.9,29.42,SE,135,8.9,-999.0,81,-99.99,,,0.00,Acu-Link.com,2013-02-18 18:41:00,
2013-02-18 12:56:00,46.0,39.9,29.41,SW,225,8.9,-999.0,79,-99.99,,,0.00,Acu-Link.com,2013-02-18 18:56:00,
2013-02-18 13:11:00,45.7,41.1,29.40,SSE,157,8.3,-999.0,84,-99.99,,,0.00,Acu-Link.com,2013-02-18 19:11:00,
2013-02-18 13:26:00,45.7,41.8,29.39,South,180,5.3,-999.0,86,-99.99,,,0.00,Acu-Link.com,2013-02-18 19:26:00,
2013-02-18 13:41:00,46.0,42.4,29.39,WSW,247,4.7,-999.0,87,-99.99,,,0.00,Acu-Link.com,2013-02-18 19:41:00,
2013-02-18 13:57:00,46.2,43.1,29.39,SSW,202,6.8,-999.0,89,-99.99,,,0.00,Acu-Link.com,2013-02-18 19:57:00,
2013-02-18 14:12:00,46.6,43.8,29.39,SW,225,7.8,-999.0,90,-99.99,,,0.00,Acu-Link.com,2013-02-18 20:12:00,
2013-02-18 14:27:00,46.2,44.6,29.39,South,180,4.7,-999.0,94,-99.99,,,0.00,Acu-Link.com,2013-02-18 20:27:00,
2013-02-18 14:42:00,46.6,45.5,29.37,South,180,10.4,-999.0,96,-99.99,,,0.00,Acu-Link.com,2013-02-18 20:42:00,
2013-02-18 14:58:00,45.9,45.6,29.37,SW,225,4.2,-999.0,99,-99.99,,,0.00,Acu-Link.com,2013-02-18 20:58:00,
2013-02-18 15:13:00,45.5,45.2,29.37,SW,225,5.8,-999.0,99,-99.99,,,0.00,Acu-Link.com,2013-02-18 21:13:00,
2013-02-18 15:28:00,45.1,44.8,29.36,SSW,202,3.7,-999.0,99,-99.99,,,0.00,Acu-Link.com,2013-02-18 21:28:00,
2013-02-18 15:43:00,44.8,44.5,29.34,SW,225,5.3,-999.0,99,-99.99,,,0.00,Acu-Link.com,2013-02-18 21:43:00,
2013-02-18 15:58:00,44.4,44.1,29.33,ESE,112,4.7,-999.0,99,-99.99,,,0.00,Acu-Link.com,2013-02-18 21:58:00,
2013-02-18 16:14:00,44.2,43.9,29.32,SSW,202,5.3,-999.0,99,-99.99,,,0.00,Acu-Link.com,2013-02-18 22:14:00,
2013-02-18 16:29:00,43.9,43.6,29.32,South,180,4.2,-999.0,99,-99.99,,,0.00,Acu-Link.com,2013-02-18 22:29:00,
2013-02-18 16:44:00,43.2,42.9,29.31,SSW,202,3.2,-999.0,99,-99.99,,,0.00,Acu-Link.com,2013-02-18 22:44:00,
2013-02-18 16:59:00,43.0,42.7,29.30,SSE,157,5.8,-999.0,99,-99.99,,,0.00,Acu-Link.com,2013-02-18 22:59:00,
2013-02-18 17:15:00,42.4,42.1,29.29,SSW,202,2.2,-999.0,99,-99.99,,,0.00,Acu-Link.com,2013-02-18 23:15:00,
2013-02-18 17:30:00,42.4,42.1,29.28,SW,225,2.7,-999.0,99,-99.99,,,0.00,Acu-Link.com,2013-02-18 23:30:00,
2013-02-18 17:45:00,42.1,41.8,29.28,SW,225,1.1,-999.0,99,-99.99,,,0.01,Acu-Link.com,2013-02-18 23:45:00,
2013-02-18 18:00:00,41.9,41.6,29.28,SSE,157,0.0,-999.0,99,-99.99,,,0.05,Acu-Link.com,2013-02-19 00:00:00,
2013-02-18 18:16:00,41.4,41.1,29.27,South,180,0.0,-999.0,99,-99.99,,,0.09,Acu-Link.com,2013-02-19 00:16:00,
2013-02-18 18:31:00,41.5,41.2,29.27,SSE,157,1.7,-999.0,99,-99.99,,,0.12,Acu-Link.com,2013-02-19 00:31:00,
2013-02-18 18:46:00,42.3,42.0,29.26,SW,225,1.7,-999.0,99,-99.99,,,0.15,Acu-Link.com,2013-02-19 00:46:00,
2013-02-18 19:01:00,42.3,39.6,29.26,West,270,2.2,-999.0,90,-99.99,,,0.22,Acu-Link.com,2013-02-19 01:01:00,
2013-02-18 19:16:00,41.4,38.4,29.26,West,270,4.7,-999.0,89,-99.99,,,0.26,Acu-Link.com,2013-02-19 01:16:00,
2013-02-18 19:32:00,40.5,40.2,29.26,West,270,11.9,-999.0,99,-99.99,,,0.28,Acu-Link.com,2013-02-19 01:32:00,
2013-02-18 19:47:00,38.5,38.2,29.25,WNW,292,9.4,-999.0,99,-99.99,,,0.29,Acu-Link.com,2013-02-19 01:47:00,
2013-02-18 20:02:00,37.0,36.7,29.25,West,270,6.3,-999.0,99,-99.99,,,0.31,Acu-Link.com,2013-02-19 02:02:00,
2013-02-18 20:17:00,35.6,35.3,29.25,West,270,4.2,-999.0,99,-99.99,,,0.33,Acu-Link.com,2013-02-19 02:17:00,
2013-02-18 20:33:00,34.0,33.7,29.25,WNW,292,2.2,-999.0,99,-99.99,,,0.36,Acu-Link.com,2013-02-19 02:33:00,
2013-02-18 20:48:00,33.3,33.0,29.25,WNW,292,2.7,-999.0,99,-99.99,,,0.37,Acu-Link.com,2013-02-19 02:48:00,
2013-02-18 21:03:00,33.1,32.8,29.25,West,270,6.8,-999.0,99,-99.99,,,0.37,Acu-Link.com,2013-02-19 03:03:00,
2013-02-18 21:18:00,32.9,32.7,29.25,West,270,2.7,-999.0,99,-99.99,,,0.37,Acu-Link.com,2013-02-19 03:18:00,
2013-02-18 21:33:00,32.9,32.7,29.25,West,270,2.7,-999.0,99,-99.99,,,0.37,Acu-Link.com,2013-02-19 03:33:00,
2013-02-18 21:49:00,32.9,32.7,29.26,WNW,292,5.3,-999.0,99,-99.99,,,0.37,Acu-Link.com,2013-02-19 03:49:00,
2013-02-18 22:04:00,32.9,32.7,29.26,West,270,4.7,-999.0,99,-99.99,,,0.37,Acu-Link.com,2013-02-19 04:04:00,
2013-02-18 22:19:00,32.9,31.6,29.27,NW,315,5.8,-999.0,95,-99.99,,,0.37,Acu-Link.com,2013-02-19 04:19:00,
2013-02-18 22:34:00,32.7,30.1,29.28,West,270,3.2,-999.0,90,-99.99,,,0.37,Acu-Link.com,2013-02-19 04:34:00,
2013-02-18 22:49:00,32.7,29.5,29.29,West,270,10.9,-999.0,88,-99.99,,,0.37,Acu-Link.com,2013-02-19 04:49:00,
2013-02-18 23:05:00,32.5,32.3,29.29,West,270,7.8,-999.0,99,-99.99,,,0.37,Acu-Link.com,2013-02-19 05:05:00,
2013-02-18 23:20:00,32.4,32.2,29.31,West,270,10.9,-999.0,99,-99.99,,,0.37,Acu-Link.com,2013-02-19 05:20:00,
2013-02-18 23:35:00,31.1,30.9,29.32,West,270,9.4,-999.0,99,-99.99,,,0.37,Acu-Link.com,2013-02-19 05:35:00,
2013-02-18 23:50:00,29.8,29.6,29.32,West,270,7.3,-999.0,99,-99.99,,,0.37,Acu-Link.com,2013-02-19 05:50:00,